[Iaude] MPEC V156: 2023 VZ4 [a=2.60,e=0.77,i=7.4,H=24.6]
    mpec at marsden.cfa.harvard.edu 
    mpec at marsden.cfa.harvard.edu
       
    Thu Nov  9 20:24:53 EST 2023
    
    
  
M.P.E.C. 2023-V156                            Issued 2023 November 10, 01:23 UT
     The Minor Planet Electronic Circulars contain information on unusual
         minor planets, routine data on comets and natural satellites,
         and occasional editorial announcements.  They are published
    on behalf of Division F of the International Astronomical Union by the
          Minor Planet Center, Smithsonian Astrophysical Observatory,
                          Cambridge, MA 02138, U.S.A.
			  
             Prepared using the Tamkin Foundation Computer Network
                              MPC at CFA.HARVARD.EDU
            URL https://www.minorplanetcenter.net/    ISSN 1523-6714
                                    2023 VZ4                                    
Observations:
     K23V04Z*1C2023 11 08.17357323 11 40.661-01 01 58.30         20.15GVEV156G96
     K23V04Z 1C2023 11 08.18022423 11 56.202-00 59 29.51         20.02GVEV156G96
     K23V04Z 1C2023 11 08.18540923 12 08.464-00 57 33.12         19.92GVEV156G96
     K23V04Z KC2023 11 08.21773823 13 24.578-00 45 29.05         20.32GVEV156I52
     K23V04Z KC2023 11 08.21861623 13 26.605-00 45 09.54         20.38GVEV156I52
     K23V04Z KC2023 11 08.21948623 13 28.675-00 44 50.21         20.14GVEV156I52
     K23V04Z KC2023 11 08.22035323 13 30.666-00 44 31.02         20.06GVEV156I52
     K23V04Z KC2023 11 08.26667523 15 18.562-00 27 27.25         20.10GVEV156I52
     K23V04Z KC2023 11 08.26798423 15 21.560-00 26 58.92         19.50GVEV156I52
     K23V04Z KC2023 11 08.26929223 15 24.610-00 26 30.23         20.30GVEV156I52
     K23V04Z KC2023 11 08.27060823 15 27.673-00 26 01.32         20.50GVEV156I52
     K23V04Z KC2023 11 08.77789523 34 00.90 +02 24 49.1          20.3 GVEV156L01
     K23V04Z KC2023 11 08.77986923 34 04.75 +02 25 25.6          20.3 GVEV156L01
     K23V04Z KC2023 11 08.78184323 34 08.59 +02 26 02.6          19.9 GVEV156L01
     K23V04Z KC2023 11 08.78426223 34 13.45 +02 26 48.0          20.4 GVEV156L01
     K23V04Z KC2023 11 08.84748823 36 17.17 +02 46 12.1                VEV156204
     K23V04Z KC2023 11 08.85660823 36 34.75 +02 48 58.4          20.2 GVEV156204
     K23V04Z KC2023 11 09.07325523 43 32.185+03 52 45.62         20.23GVEV156I52
     K23V04Z KC2023 11 09.07422023 43 33.924+03 53 01.97         20.22GVEV156I52
     K23V04Z KC2023 11 09.07518523 43 35.659+03 53 18.46         20.08GVEV156I52
     K23V04Z KC2023 11 09.07615623 43 37.420+03 53 34.69         20.32GVEV156I52
     K23V04Z 1C2023 11 09.97604 00 07 38.15 +07 32 05.7          20.5 VXEV156033
     K23V04Z 1C2023 11 09.97679 00 07 39.20 +07 32 15.1          20.2 VXEV156033
     K23V04Z 1C2023 11 09.97754 00 07 40.24 +07 32 24.9          20.4 VXEV156033
Observer details:
033 Karl Schwarzschild Observatory, Tautenburg.  Observers S. Melnikov, C.
    Hogner, F. Ludwig, M. Hartmann, B. Stecklum.  Measurer B. Stecklum.
    1.34-m f/3 Schmidt + CCD.
204 Schiaparelli Observatory.  Observers L. Buzzi, G. Galli.  0.84-m f/3.5
    reflector + CCD.
G96 Mt. Lemmon Survey.  Observer D. Rankin.  Measurers E. C. Beshore, D. Fay,
    J. B. Fazekas, D. C. Fuls, A. R. Gibbs, A. D. Grauer, H. Groeller, J. K.
    Hogan, R. A. Kowalski, S. M. Larson, G. J. Leonard, D. Rankin, R. L.
    Seaman, F. C. Shelly, K. W. Wierzchos.  1.5-m reflector + 10K CCD.
I52 Steward Observatory, Mt. Lemmon Station.  Observer H. Groeller.  Measurers
    E. C. Beshore, D. Fay, J. B. Fazekas, D. C. Fuls, A. R. Gibbs, A. D.
    Grauer, H. Groeller, J. K. Hogan, R. A. Kowalski, S. M. Larson, G. J.
    Leonard, D. Rankin, R. L. Seaman, F. C. Shelly, K. W. Wierzchos.  1.0-m
    prime focus + CCD.
L01 Visnjan Observatory, Tican.  Observer K. Korlevic.  1.0-m f/2.9 reflector
    + CCD.
Orbital elements:
2023 VZ4                                                 Earth MOID = 0.0016 AU
Epoch 2023 Sept. 13.0 TT = JDT 2460200.5                Veres                   
M 357.60949              (2000.0)            P               Q                  
n   0.23528153     Peri.  275.07898     +0.71577584     +0.69324908             
a   2.5986283      Node    41.07118     -0.57922799     +0.65663878             
e   0.7670757      Incl.    7.35330     -0.39007677     +0.29703740             
P   4.19           H   24.68          G   0.15           U   8                  
Residuals in seconds of arc
231108 G96 (2.8+  1.2+)   231108 I52  0.0   0.1+    231108 204  0.1+  0.3+
231108 G96  0.3-  0.1+    231108 I52  0.3+  0.1+    231109 I52  0.0   0.1-
231108 G96  0.2-  0.2-    231108 I52  0.5+  0.2+    231109 I52  0.1+  0.1-
231108 I52  0.8+  0.4+    231108 L01  0.0   0.1-    231109 I52  0.1+  0.0
231108 I52  0.3+  0.4+    231108 L01  0.6-  0.4-    231109 I52  0.4+  0.2-
231108 I52  0.8+  0.3+    231108 L01  1.3-  0.2-    231109 033  0.5-  0.1+
231108 I52  0.2+  0.2+    231108 L01  0.2+  0.1+    231109 033  0.4-  0.1+
231108 I52  0.5+  0.5+    231108 204  0.1-  0.1+    231109 033  0.3-  0.6+
Ephemeris:
2023 VZ4                 a,e,i = 2.60, 0.77, 7                   q = 0.6053
Date    TT    R. A. (2000) Decl.     Delta      r    Elong.  Phase     V
2023 10 11    14 44 29.5 -24 49 15   0.3845  0.6942    30.3   133.5    27.9
...
2023 10 26    15 33 25.1 -28 56 36   0.1586  0.8569    27.6   147.5    28.3
...
2023 11 03    18 01 37.9 -31 21 15   0.05905 0.9560    50.8   126.4    23.8
...
2023 11 09    23 41 10.2 +03 32 47   0.06162 1.0321   130.9    46.5    20.5
2023 11 10    00 08 14.6 +07 38 22   0.07213 1.0449   137.6    39.8    20.6
2023 11 11    00 28 32.8 +10 35 22   0.08368 1.0576   142.2    35.0    20.9
...
2023 11 17    01 26 54.3 +18 07 43   0.1621  1.1341   151.6    24.5    22.1
...
2023 11 25    01 54 06.2 +20 53 51   0.2763  1.2354   150.6    23.1    23.4
...
2023 12 10    02 17 40.1 +22 33 11   0.5101  1.4204   141.6    25.5    25.1
M. P. C. Staff               (C) Copyright 2023 MPC           M.P.E.C. 2023-V156
    
    
More information about the Iaude
mailing list